Time,TemperatureF,DewpointF,PressureIn,WindDirection,WindDirectionDegrees,WindSpeedMPH,WindSpeedGustMPH,Humidity,HourlyPrecipIn,Conditions,Clouds,dailyrainin,SoftwareType,DateUTC
2013-12-15 00:11:00,51.0,30.0,30.28,NNW,328,8.0,-999.0,44,-99.99,,,-99.99,,2013-12-15 07:11:00,
2013-12-15 00:21:00,52.0,30.0,30.29,NNW,327,2.0,-999.0,42,-99.99,,,-99.99,,2013-12-15 07:21:00,
2013-12-15 00:41:00,51.0,28.0,30.29,NW,323,2.0,-999.0,41,-99.99,,,-99.99,,2013-12-15 07:41:00,
2013-12-15 00:52:00,51.0,29.0,30.29,NW,323,0.0,-999.0,42,-99.99,,,-99.99,,2013-12-15 07:52:00,
2013-12-15 01:11:00,51.0,28.0,30.29,NW,305,4.0,-999.0,41,-99.99,,,-99.99,,2013-12-15 08:11:00,
2013-12-15 01:22:00,51.0,28.0,30.29,WNW,289,6.0,-999.0,40,-99.99,,,-99.99,,2013-12-15 08:22:00,
2013-12-15 01:42:00,51.0,29.0,30.29,WNW,286,4.0,-999.0,42,-99.99,,,-99.99,,2013-12-15 08:42:00,
2013-12-15 07:42:00,44.0,31.0,30.30,WNW,302,2.0,-999.0,60,-99.99,,,-99.99,,2013-12-15 14:42:00,
2013-12-15 07:52:00,45.0,31.0,30.29,NW,304,3.0,-999.0,58,-99.99,,,-99.99,,2013-12-15 14:52:00,
2013-12-15 11:52:00,64.0,34.0,30.29,NNE,31,0.0,-999.0,32,-99.99,,,-99.99,,2013-12-15 18:52:00,
2013-12-15 12:11:00,67.0,33.0,30.29,NW,309,4.0,-999.0,28,-99.99,,,-99.99,,2013-12-15 19:11:00,
2013-12-15 12:21:00,67.0,30.0,30.27,NW,306,5.0,-999.0,25,-99.99,,,-99.99,,2013-12-15 19:21:00,
2013-12-15 12:42:00,68.0,30.0,30.26,WNW,299,6.0,-999.0,24,-99.99,,,-99.99,,2013-12-15 19:42:00,
2013-12-15 12:52:00,69.0,30.0,30.25,NW,304,6.0,-999.0,23,-99.99,,,-99.99,,2013-12-15 19:52:00,
2013-12-15 13:11:00,70.0,32.0,30.25,NW,304,8.0,-999.0,24,-99.99,,,-99.99,,2013-12-15 20:11:00,
2013-12-15 13:22:00,70.0,29.0,30.24,NW,316,9.0,-999.0,22,-99.99,,,-99.99,,2013-12-15 20:22:00,
2013-12-15 13:42:00,70.0,30.0,30.23,NW,317,9.0,-999.0,23,-99.99,,,-99.99,,2013-12-15 20:42:00,
2013-12-15 13:52:00,71.0,29.0,30.22,NW,310,9.0,-999.0,21,-99.99,,,-99.99,,2013-12-15 20:52:00,
2013-12-15 14:11:00,71.0,28.0,30.21,North,355,7.0,-999.0,20,-99.99,,,-99.99,,2013-12-15 21:11:00,
2013-12-15 14:21:00,71.0,28.0,30.21,North,355,7.0,-999.0,20,-99.99,,,-99.99,,2013-12-15 21:21:00,
2013-12-15 14:43:00,72.0,27.0,30.20,North,355,6.0,-999.0,19,-99.99,,,-99.99,,2013-12-15 21:43:00,
2013-12-15 14:53:00,71.0,25.0,30.19,North,355,7.0,-999.0,18,-99.99,,,-99.99,,2013-12-15 21:53:00,
2013-12-15 15:12:00,71.0,28.0,30.19,NW,321,8.0,-999.0,20,-99.99,,,-99.99,,2013-12-15 22:12:00,
2013-12-15 15:23:00,72.0,29.0,30.19,NNW,329,7.0,-999.0,20,-99.99,,,-99.99,,2013-12-15 22:23:00,
2013-12-15 15:43:00,72.0,29.0,30.19,NW,315,8.0,-999.0,20,-99.99,,,-99.99,,2013-12-15 22:43:00,
2013-12-15 15:52:00,72.0,30.0,30.18,NW,309,8.0,-999.0,21,-99.99,,,-99.99,,2013-12-15 22:52:00,
2013-12-15 16:11:00,71.0,29.0,30.18,NNW,327,8.0,-999.0,21,-99.99,,,-99.99,,2013-12-15 23:11:00,
2013-12-15 18:21:00,61.0,33.0,30.16,WNW,298,5.0,-999.0,35,-99.99,,,-99.99,,2013-12-16 01:21:00,
2013-12-15 18:42:00,60.0,34.0,30.16,WNW,298,2.0,-999.0,37,-99.99,,,-99.99,,2013-12-16 01:42:00,
2013-12-15 18:52:00,59.0,33.0,30.17,WNW,298,3.0,-999.0,38,-99.99,,,-99.99,,2013-12-16 01:52:00,
2013-12-15 19:21:00,58.0,33.0,30.17,WNW,291,4.0,-999.0,38,-99.99,,,-99.99,,2013-12-16 02:21:00,
2013-12-15 19:42:00,57.0,32.0,30.18,West,273,4.0,-999.0,39,-99.99,,,-99.99,,2013-12-16 02:42:00,
2013-12-15 19:52:00,57.0,32.0,30.17,West,280,6.0,-999.0,39,-99.99,,,-99.99,,2013-12-16 02:52:00,
2013-12-15 20:54:00,55.0,33.0,30.18,NW,309,3.0,-999.0,44,-99.99,,,-99.99,,2013-12-16 03:54:00,
2013-12-15 21:13:00,55.0,34.0,30.18,NW,309,2.0,-999.0,45,-99.99,,,-99.99,,2013-12-16 04:13:00,
2013-12-15 21:23:00,55.0,32.0,30.18,NW,304,3.0,-999.0,41,-99.99,,,-99.99,,2013-12-16 04:23:00,
2013-12-15 21:42:00,55.0,32.0,30.18,WNW,290,3.0,-999.0,41,-99.99,,,-99.99,,2013-12-16 04:42:00,
2013-12-15 21:52:00,55.0,33.0,30.18,WNW,290,0.0,-999.0,43,-99.99,,,-99.99,,2013-12-16 04:52:00,
2013-12-15 22:12:00,54.0,33.0,30.18,WNW,290,0.0,-999.0,44,-99.99,,,-99.99,,2013-12-16 05:12:00,
2013-12-15 22:22:00,54.0,33.0,30.18,WNW,290,1.0,-999.0,44,-99.99,,,-99.99,,2013-12-16 05:22:00,
2013-12-15 22:43:00,54.0,33.0,30.18,WNW,290,2.0,-999.0,44,-99.99,,,-99.99,,2013-12-16 05:43:00,
2013-12-15 22:53:00,54.0,32.0,30.18,WNW,290,1.0,-999.0,43,-99.99,,,-99.99,,2013-12-16 05:53:00,
2013-12-15 23:11:00,54.0,32.0,30.18,WNW,290,2.0,-999.0,43,-99.99,,,-99.99,,2013-12-16 06:11:00,
2013-12-15 23:22:00,53.0,32.0,30.18,WNW,290,2.0,-999.0,44,-99.99,,,-99.99,,2013-12-16 06:22:00,
2013-12-15 23:42:00,53.0,32.0,30.18,WNW,290,2.0,-999.0,45,-99.99,,,-99.99,,2013-12-16 06:42:00,
2013-12-15 23:52:00,52.0,32.0,30.18,WNW,290,1.0,-999.0,46,-99.99,,,-99.99,,2013-12-16 06:52:00,